This demonstration page uses our WeatherBlox Daily Observations layout. Learn more.

Left ArrowRight Arrow

39.92423, -83.80882

Hourly Observations for March 25, 2022

Temp ( °F °C ) Dew Point ( °F °C ) Humidity (%) Winds ( mph kmh ) Pressure ( in mb ) Visibility ( mi km ) Precip ( " mm )
12:56 am 00:56 Mostly Cloudy 41 5 34 1.1 76 76 WSW 12 19 29.83 1010 10 16 0.00 0.00
1:56 am 01:56 Mostly Cloudy 41 5 35 1.7 79 79 WSW 10 17 29.82 1010 10 16 0.00 0.00
2:56 am 02:56 Cloudy 40 4.4 37 2.8 89 89 WSW 8 13 29.81 1010 10 16 0.00 0.00
3:51 am 03:51 Cloudy 41 5 37 3 87 87 SW 8 13 29.81 1010 10 16 0.00 0.00
3:56 am 03:56 Cloudy 41 5 38 3.3 89 89 SW 8 13 29.79 1009 10 16 0.00 0.00
4:56 am 04:56 Cloudy 41 5 38 3.3 89 89 SW 10 17 29.79 1009 10 16 0.00 0.00
5:56 am 05:56 Cloudy 41 5 38 3.3 89 89 WSW 10 17 29.78 1009 10 16 0.00 0.00
6:56 am 06:56 Cloudy 41 5 40 4.4 96 96 WSW 9 15 29.78 1009 10 16 0.00 0.00
7:56 am 07:56 Cloudy 40 4.4 40 4.4 100 100 WSW 12 19 29.79 1009 10 16 0.00 0.00
8:32 am 08:32 Cloudy 41 5 39 4 93 93 WSW 13 20 29.80 1009 10 16 0.00 0.00
8:48 am 08:48 Cloudy 41 5 39 4 93 93 WSW 12 19 29.80 1009 10 16 0.00 0.00
8:56 am 08:56 Cloudy 41 5 38 3.3 89 89 W 15 24 29.79 1009 10 16 0.00 0.00
9:17 am 09:17 Cloudy 43 6 37 3 81 81 WSW 14 22 29.80 1009 10 16 0.00 0.00
9:56 am 09:56 Cloudy 42 5.6 37 2.8 82 82 W 15 24 29.78 1009 10 16 0.00 0.00
10:56 am 10:56 Cloudy 41 5 36 2.2 82 82 W 22 35 29.79 1009 10 16 0.00 0.00
11:20 am 11:20 Cloudy 41 5 37 3 87 87 W 12 19 29.80 1009 10 16 0.00 0.00
11:46 am 11:46 Cloudy 43 6 36 2 76 76 W 15 24 29.80 1009 10 16 0.00 0.00
11:56 am 11:56 Cloudy with Light Rain 41 5 36 2.2 82 82 WSW 16 26 29.79 1009 10 16 0.00 0.00
12:56 pm 12:56 Cloudy with Light Rain 41 5 40 4.4 96 96 SW 16 26 29.78 1008 10 16 0.00 0.00
1:56 pm 13:56 Cloudy 42 5.6 38 3.3 85 85 WSW 15 24 29.76 1008 10 16 0.00 0.00
2:56 pm 14:56 Cloudy with Light Rain 41 5 41 5 100 100 WSW 20 31 29.75 1008 10 16 0.00 0.00
3:56 pm 15:56 Cloudy with Light Rain 42 5.6 40 4.4 92 92 WSW 22 35 29.73 1007 10 16 0.00 0.00
4:56 pm 16:56 Cloudy with Light Rain 42 5.6 42 5.6 100 100 WSW 17 28 29.74 1007 10 16 0.00 0.00
5:56 pm 17:56 Cloudy with Light Rain 43 6 N/A N/A SW 16 26 29.74 1007 10 16 0.00 0.00
6:25 pm 18:25 Cloudy 43 6 43 6 100 100 WSW 20 31 29.74 1007 10 16 0.00 0.00
6:56 pm 18:56 Cloudy 42 5.6 42 5.6 100 100 WSW 16 26 29.74 1007 10 16 0.00 0.00
7:13 pm 19:13 Cloudy with Light Rain 41 5 41 5 100 100 WSW 18 30 29.75 1008 4 6 0.00 0.00
7:56 pm 19:56 Cloudy with Light Rain 41 5 N/A N/A WSW 20 31 29.74 1007 5 8 0.00 0.00
8:48 pm 20:48 Mostly Cloudy 41 5 N/A N/A WSW 17 28 29.75 1008 10 16 0.00 0.00
8:56 pm 20:56 Mostly Cloudy 39 4 N/A N/A WSW 15 24 29.74 1007 10 16 0.00 0.00
9:28 pm 21:28 Cloudy with Light Rain 41 5 N/A N/A WSW 14 22 29.75 1008 10 16 0.00 0.00
9:56 pm 21:56 Cloudy with Light Rain 40 4.4 40 4.4 100 100 WSW 17 28 29.74 1007 10 16 0.00 0.00
10:47 pm 22:47 Cloudy with Light Rain 39 4 39 4 100 100 W 26 43 29.77 1008 10 16 0.00 0.00
10:56 pm 22:56 Cloudy with Light Rain 39 3.9 39 3.9 100 100 W 21 33 29.76 1008 10 16 0.00 0.00
11:04 pm 23:04 Cloudy 37 3 37 3 100 100 W 25 41 29.77 1008 10 16 0.00 0.00
11:56 pm 23:56 Cloudy 37 2.8 35 1.7 93 93 WSW 14 22 29.74 1007 10 16 0.00 0.00

Powered by AerisWeather